sat.trackr.live / text

‹ back to catalog

NINGXIA-1 5

NORAD 44783 · 2019-076E

PAYLOAD ACTIVE UNKNOWN

§ Identity

Operator
Country
PRC
Launch date
2019-11-13
Launch site
TAISC
Launch vehicle
Mass (kg)
RCS (m²)

External: N2YO · Heavens-Above · Gunter

§ Orbital elements

Epoch: 2026-05-25T04:18:15.761376Z

Period
102.70 min
Inclination
45.0063°
Eccentricity
0.0010318
Mean motion
14.02084797 rev/d
Perigee alt
879.1 km
Apogee alt
894.1 km
Semi-major
7,264.7 km
B*
4.6935e-5
RAAN
282.0210°
Arg perigee
36.5468°
Mean anomaly
323.6069°
Rev number
33,454

§ Raw data

NINGXIA-1 51 44783U 19076E   26145.17934909 -.00000058  00000+0  46935-4 0  99932 44783  45.0063 282.0210 0010318  36.5468 323.6069 14.02084797334546

JSON: /api/v1/satellites/44783 · /tle

For live sub-satellite position, see the globe view (requires WebGL).

§ Visibility from observer

Set your observer location to see the next 7 days of passes ≥ 10°. The values pass through the URL so the page stays shareable.

No JS? Fill the form by hand. The geolocation button needs JavaScript.

§ Radio — SatNOGS DB

ModeDescriptionDownlinkUplink
FM Mode S 2.271 GHz

1 transmitter · refreshed weekly from db.satnogs.org